C/2003 W1 ( LINEAR )

Japanese version
Home page
Total 6,336 html files since Dec. 4, 1995
Updated on March 10, 2004

---------------------------------------------------------------------

* Profile

Discovery Date November 16, 2003
Magnitude 18.5 mag
Discoverer Lincoln Laboratory Near-Earth Asteroid Research project

* Orbital Elements

Epoch 2003 Nov. 17.0 TT = JDT 2452960.5
T 2003 Nov.  9.46257 TT                                 MPC
q   1.6524247            (2000.0)            P               Q
n   0.00780203     Peri.  113.28835     +0.27538798     +0.13113485
a  25.1766386      Node   256.74249     -0.04434835     +0.99133083
e   0.9343667      Incl.   78.07610     +0.96030968     +0.00817541
P 126.33
>From 93 observations 2003 Nov. 16-2004 Feb. 13, mean residual 0".71.

* Finding Charts

* Magnitudes Graph

        m1 = 12.0 + 5 log d + 17.5 log r

---------------------------------------------------------------------

The orbital elements are published on M.P.E.C. 2004-D20.
The charts are made with StellaNavigator Ver.2.0 for Windows (AstroArts / ASCII).
The magnitudes graphs are made with Comet for Windows.

---------------------------------------------------------------------

Copyright(C) 1995-2008 Seiichi Yoshida (comet@aerith.net). All rights reserved.